Location: ????
(32.1228°N, 34.8377°E)
Time: 01:07:26
(UTC+00:00)

Cosmos 1339 Rocket - Pass Details

Date: 21 September 2020
Orbit: 941 x 1006 km, 82.9° (Epoch: 21 October)

Event Time Altitude Azimuth Distance (km) Brightness Sun altitude
Exits shadow 01:30:52 58° 257° (WSW) 1,135 4.4 -25.3°
Maximum altitude 01:31:21 60° 278° (W) 1,117 4.5 -25.2°
Drops below altitude 10° 01:37:31 10° 357° (N) 2,722 7.0 -23.9°
Sets 01:40:03 0° 2° (N) 3,662 7.7 -23.4°
